850  
ASUS43 KIND 182009  
RWRIN  
 
WEATHER ROUNDUP FOR INDIANA  
NATIONAL WEATHER SERVICE INDIANAPOLIS IN  
400 PM EDT WED SEP 18 2019  
 
NOTE: "FAIR" INDICATES FEW OR NO CLOUDS BELOW 12,000 FEET WITH NO  
SIGNIFICANT WEATHER AND/OR S TO VISIBILITY
.  
 
* - STATION DOES NOT REPORT WEATHER SUCH AS PRECIPITATION OR FOG.
 
 
+ - STATION NOT QUALITY CONTROLLED BY THE NATIONAL WEATHER SERVICE.  
USE DATA WITH CAUTION...ESPECIALLY DEWPOINT AND RELATIVE  
HUMIDITY OBSERVATIONS.  
 
INZ001>003-010>013-019-020-182100-  
NORTHWEST INDIANA  
 
CITY SKY/WX TMP DP RH WIND PRES REMARKS
 
GARY /AIRPORT/ PTSUNNY 81 59 47 SE3 30.13F  
KNOX *+ FAIR 79 59 50 E3 30.12F  
LA PORTE + FAIR 81 60 49 S7 30.14F  
MICHIGAN CITY+ FAIR 81 68 65 SE5 30.12F  
MONTICELLO + FAIR 83 58 42 E7 30.11F  
RENSSELAER + FAIR 81 55 41 E5 30.11F  
VALPARAISO FAIR 82 59 45 S5 30.12F  
 

 
 
LMZ046-743>745-182100-  
SOUTHERN LAKE MICHIGAN  
 
STATION/POSITION TIME TEMP WIND PRES WAVE
 
AIR SEA DIR/SP/G HT  
(UTC) (F) (DEG/KT/KT) (MB) (FT)  
BURNS HARBOR 1940 73 60/ 4/ 5 1020.3F  
MICHIGAN CITY 1940 72 30/ 9/ 10 N/A  
5NW MICH CITY 2000 71 70 20/ 6/ 6 N/A 0  
 

 
 
INZ004-005-014>016-021>024-182100-  
NORTH CENTRAL INDIANA  
 
CITY SKY/WX TMP DP RH WIND PRES REMARKS
 
ELKHART FAIR 82 55 39 SE7 30.14F  
GOSHEN FAIR 82 55 39 SE6 30.14F  
LOGANSPORT + FAIR 79 61 53 NE3 30.12F  
PERU/GRISSOM FAIR 82 60 47 NE7 30.11F  
PLYMOUTH *+ SUNNY 81 59 47 E7 30.13F  
ROCHESTER + FAIR 82 59 44 E7 30.13F  
SOUTH BEND FAIR 82 59 45 SE6 30.14F  
WARSAW + FAIR 81 55 41 E7 30.14F  
 

 
 
INZ006>009-017-018-025>027-182100-  
NORTHEAST INDIANA  
 
CITY SKY/WX TMP DP RH WIND PRES REMARKS
 
ANGOLA *+ FAIR 81 N/A N/A SE6 30.17F  
AUBURN + FAIR 81 57 44 E5 30.17F  
FORT WAYNE FAIR 81 57 43 E8 30.14F  
KENDALLVILLE + FAIR 80 53 39 SE7 30.16F  
 

 
 
INZ028-029-035-036-043>045-051>053-182100-  
WEST CENTRAL INDIANA  
 
CITY SKY/WX TMP DP RH WIND PRES REMARKS
 
CRAWFORDSVL + FAIR 80 63 56 E8 30.11F  
GREENCASTLE + FAIR 82 59 44 NE6 30.11F  
LAFAYETTE FAIR 84 59 42 E6 30.10F  
TERRE HAUTE FAIR 85 60 42 E5 30.09F  
 

 
 
INZ030>032-037>040-046>048-054>057-064-065-182100-  
CENTRAL INDIANA  
 
CITY SKY/WX TMP DP RH WIND PRES REMARKS
 
COLUMBUS SUNNY 86 54 32 SE6 30.08F  
FISHERS *+ FAIR 88 63 42 E5 30.10  
FRANKFORT + FAIR 83 60 45 SE5 30.14S  
GREENWOOD *+ FAIR 83 59 43 E7 30.10F  
INDIANAPOLIS FAIR 85 56 37 E8 30.09F  
-EAGLE CREEK FAIR 86 56 35 N9 30.09F  
KOKOMO + FAIR 83 60 45 E10 30.13F  
MT COMFORT *+ FAIR 86 64 48 NE8 30.11F  
SHELBYVILLE FAIR 85 58 39 E8 30.09F  
ZIONSVILLE + FAIR 81 62 51 E6 30.12F  
 

 
 
INZ033-034-041-042-049-050-058-059-182100-  
EAST CENTRAL INDIANA  
 
CITY SKY/WX TMP DP RH WIND PRES REMARKS
 
MUNCIE FAIR 86 58 38 E10 30.12F  
PORTLAND + FAIR 82 45 26 NE3 30.14F  
RICHMOND + FAIR 82 52 34 E9G17 30.13F  
 

 
 
INZ060-061-067>069-081>083-085>088-182100-  
SOUTHWEST INDIANA  
 
CITY SKY/WX TMP DP RH WIND PRES REMARKS
 
EVANSVILLE FAIR 88 58 36 N8 30.04F  
HUNTINGBURG + FAIR 86 64 47 NE7 30.05F  
WASHINGTON + FAIR 86 60 42 N3 30.05F  
 

 
 
INZ062-063-066-070>080-084-089>092-182100-  
SOUTH CENTRAL AND SOUTHEAST INDIANA  
 
CITY SKY/WX TMP DP RH WIND PRES REMARKS
 
BATESVILLE + SUNNY 86 54 32 NE8 30.10S  
BEDFORD + N/A 86 54 32 E10 30.07F  
BLOOMINGTON FAIR 86 61 42 N6 30.09F  
FRENCH LICK *+ FAIR 82 59 44 NE8 30.07F  
JEFFERSONVL + FAIR 88 58 37 CALM 30.04F  
MADISON *+ FAIR 88 59 37 E3 30.09F  
NORTH VERNON + FAIR 82 59 44 N8 30.08F  
SEYMOUR + FAIR 90 55 31 E6 30.07F  
 

 
 
 
 
CLICK HERE TO GO TO PREVIOUS BULLETINS.

The Nexlab IN Page Main Text Page